{"data":{"norad_id":44539,"intl_designator":"2019-060F","name":"ZHUHAI-1 03E","alt_names":[],"object_type":"PAYLOAD","status":"ACTIVE","operator":null,"country":"PRC","launch_date":"2019-09-19","launch_site_code":"JSC","launch_vehicle":null,"mission":null,"orbit_class":"UNKNOWN","rcs_meters":null,"size_class":null,"mass_kg":null,"dimensions":null,"purposes":[],"wikipedia_slug":null,"has_3d_model":false,"image_url":null,"decayed_at":null,"tle_current":{"epoch":"2026-09-20T05:12:35.140032Z","epoch_age_seconds":86096,"freshness":"FRESH","line1":"1 44539U 19060F   26263.21707338  .00013281  00000+0  29446-3 0  9993","line2":"2 44539  97.5729  56.7422 0006098  47.7022 312.4742 15.43862185390410","mean_motion":15.43862185,"eccentricity":0.0006098,"inclination_deg":97.5729,"raan_deg":56.7422,"arg_perigee_deg":47.7022,"mean_anomaly_deg":312.4742,"bstar":0.00029446,"rev_number":39041,"period_min":93.272574067225,"perigee_km":430.56888719178,"apogee_km":438.87785169836,"semimajor_km":6812.8603694451,"source":"CELESTRAK","updated_at":"2026-09-20T09:00:14.533546Z"}}}